Location: *
(45.9500°N, 9.0833°E)
Time: 00:39:27
(UTC+00:00)

SR - Pass Details

Date: 20 June 2021
Orbit: 577 x 878 km, 66.7° (Epoch: 23 July)

Event Time Altitude Azimuth Distance (km) Brightness Sun altitude
Rises 16:29:35 0° 228° (SW) 3,456 ? 26.1°
Reaches altitude 10° 16:32:09 10° 234° (SW) 2,528 ? 25.6°
Maximum altitude 16:37:54 51° 310° (NW) 1,092 ? 24.7°
Drops below altitude 10° 16:43:32 10° 25° (NNE) 2,481 ? 23.7°
Sets 16:46:02 0° 31° (NNE) 3,386 ? 23.3°
